Year,Month,Day,Hour,Minute,Value (Times are PST for temperature in C)
2018,08,07,00,00,17.00
2018,08,07,00,01,17.00
2018,08,07,00,02,17.00
2018,08,07,00,03,17.00
2018,08,07,00,04,17.00
2018,08,07,00,05,17.00
2018,08,07,00,06,17.00
2018,08,07,00,07,16.90
2018,08,07,00,08,16.90
2018,08,07,00,09,16.90
2018,08,07,00,10,16.90
2018,08,07,00,11,16.90
2018,08,07,00,12,16.90
2018,08,07,00,13,16.90
2018,08,07,00,14,16.90
2018,08,07,00,15,16.90
2018,08,07,00,16,16.80
2018,08,07,00,17,16.80
2018,08,07,00,18,16.80
2018,08,07,00,19,16.80
2018,08,07,00,20,16.80
2018,08,07,00,21,16.80
2018,08,07,00,22,16.80
2018,08,07,00,23,16.70
2018,08,07,00,24,16.70
2018,08,07,00,25,16.70
2018,08,07,00,26,16.70
2018,08,07,00,27,16.70
2018,08,07,00,28,16.70
2018,08,07,00,29,16.70
2018,08,07,00,30,16.70
2018,08,07,00,31,16.70
2018,08,07,00,32,16.70
2018,08,07,00,33,16.70
2018,08,07,00,34,16.70
2018,08,07,00,35,16.70
2018,08,07,00,36,16.70
2018,08,07,00,37,16.70
2018,08,07,00,38,16.70
2018,08,07,00,39,16.70
2018,08,07,00,40,16.70
2018,08,07,00,41,16.70
2018,08,07,00,42,16.70
2018,08,07,00,43,16.70
2018,08,07,00,44,16.70
2018,08,07,00,45,16.70
2018,08,07,00,46,16.70
2018,08,07,00,47,16.70
2018,08,07,00,48,16.70
2018,08,07,00,49,16.70
2018,08,07,00,50,16.70
2018,08,07,00,51,16.70
2018,08,07,00,52,16.70
2018,08,07,00,53,16.70
2018,08,07,00,54,16.70
2018,08,07,00,55,16.70
2018,08,07,00,56,16.70
2018,08,07,00,57,16.70
2018,08,07,00,58,16.70
2018,08,07,00,59,16.70
2018,08,07,01,00,16.70
2018,08,07,01,01,16.70
2018,08,07,01,02,16.70
2018,08,07,01,03,16.70
2018,08,07,01,04,16.70
2018,08,07,01,05,16.70
2018,08,07,01,06,16.70
2018,08,07,01,07,16.70
2018,08,07,01,08,16.70
2018,08,07,01,09,16.70
2018,08,07,01,10,16.60
2018,08,07,01,11,16.60
2018,08,07,01,12,16.60
2018,08,07,01,13,16.50
2018,08,07,01,14,16.40
2018,08,07,01,15,16.40
2018,08,07,01,16,16.40
2018,08,07,01,17,16.40
2018,08,07,01,18,16.40
2018,08,07,01,19,16.30
2018,08,07,01,20,16.30
2018,08,07,01,21,16.30
2018,08,07,01,22,16.30
2018,08,07,01,23,16.20
2018,08,07,01,24,16.20
2018,08,07,01,25,16.20
2018,08,07,01,26,16.10
2018,08,07,01,27,16.10
2018,08,07,01,28,16.10
2018,08,07,01,29,16.10
2018,08,07,01,30,16.10
2018,08,07,01,31,16.10
2018,08,07,01,32,16.10
2018,08,07,01,33,16.10
2018,08,07,01,34,16.10
2018,08,07,01,35,16.10
2018,08,07,01,36,16.00
2018,08,07,01,37,15.90
2018,08,07,01,38,15.90
2018,08,07,01,39,15.90
2018,08,07,01,40,15.90
2018,08,07,01,41,15.90
2018,08,07,01,42,15.90
2018,08,07,01,43,15.90
2018,08,07,01,44,15.80
2018,08,07,01,45,15.80
2018,08,07,01,46,15.80
2018,08,07,01,47,15.80
2018,08,07,01,48,15.80
2018,08,07,01,49,15.80
2018,08,07,01,50,15.80
2018,08,07,01,51,15.80
2018,08,07,01,52,15.80
2018,08,07,01,53,15.80
2018,08,07,01,54,15.70
2018,08,07,01,55,15.70
2018,08,07,01,56,15.70
2018,08,07,01,57,15.70
2018,08,07,01,58,15.70
2018,08,07,01,59,15.70
2018,08,07,02,00,15.60
2018,08,07,02,01,15.60
2018,08,07,02,02,15.60
2018,08,07,02,03,15.60
2018,08,07,02,04,15.60
2018,08,07,02,05,15.50
2018,08,07,02,06,15.50
2018,08,07,02,07,15.50
2018,08,07,02,08,15.50
2018,08,07,02,09,15.50
2018,08,07,02,10,15.50
2018,08,07,02,11,15.50
2018,08,07,02,12,15.40
2018,08,07,02,13,15.40
2018,08,07,02,14,15.40
2018,08,07,02,15,15.40
2018,08,07,02,16,15.40
2018,08,07,02,17,15.40
2018,08,07,02,18,15.30
2018,08,07,02,19,15.30
2018,08,07,02,20,15.30
2018,08,07,02,21,15.30
2018,08,07,02,22,15.30
2018,08,07,02,23,15.30
2018,08,07,02,24,15.30
2018,08,07,02,25,15.30
2018,08,07,02,26,15.30
2018,08,07,02,27,15.30
2018,08,07,02,28,15.30
2018,08,07,02,29,15.20
2018,08,07,02,30,15.20
2018,08,07,02,31,15.20
2018,08,07,02,32,15.20
2018,08,07,02,33,15.20
2018,08,07,02,34,15.20
2018,08,07,02,35,15.20
2018,08,07,02,36,15.20
2018,08,07,02,37,15.20
2018,08,07,02,38,15.20
2018,08,07,02,39,15.20
2018,08,07,02,40,15.20
2018,08,07,02,41,15.20
2018,08,07,02,42,15.20
2018,08,07,02,43,15.20
2018,08,07,02,44,15.20
2018,08,07,02,45,15.20
2018,08,07,02,46,15.20
2018,08,07,02,47,15.30
2018,08,07,02,48,15.30
2018,08,07,02,49,15.30
2018,08,07,02,50,15.30
2018,08,07,02,51,15.30
2018,08,07,02,52,15.30
2018,08,07,02,53,15.30
2018,08,07,02,54,15.30
2018,08,07,02,55,15.30
2018,08,07,02,56,15.30
2018,08,07,02,57,15.30
2018,08,07,02,58,15.30
2018,08,07,02,59,15.30
2018,08,07,03,00,15.30
2018,08,07,03,01,15.30
2018,08,07,03,02,15.30
2018,08,07,03,03,15.30
2018,08,07,03,04,15.30
2018,08,07,03,05,15.30
2018,08,07,03,06,15.30
2018,08,07,03,07,15.30
2018,08,07,03,08,15.30
2018,08,07,03,09,15.30
2018,08,07,03,10,15.20
2018,08,07,03,11,15.20
2018,08,07,03,12,15.20
2018,08,07,03,13,15.20
2018,08,07,03,14,15.20
2018,08,07,03,15,15.10
2018,08,07,03,16,15.10
2018,08,07,03,17,15.10
2018,08,07,03,18,15.10
2018,08,07,03,19,15.10
2018,08,07,03,20,15.10
2018,08,07,03,21,15.10
2018,08,07,03,22,15.10
2018,08,07,03,23,15.10
2018,08,07,03,24,15.00
2018,08,07,03,25,15.00
2018,08,07,03,26,15.00
2018,08,07,03,27,15.00
2018,08,07,03,28,15.00
2018,08,07,03,29,15.00
2018,08,07,03,30,15.00
2018,08,07,03,31,15.00
2018,08,07,03,32,14.90
2018,08,07,03,33,14.90
2018,08,07,03,34,14.90
2018,08,07,03,35,14.90
2018,08,07,03,36,14.90
2018,08,07,03,37,14.90
2018,08,07,03,38,14.80
2018,08,07,03,39,14.80
2018,08,07,03,40,14.80
2018,08,07,03,41,14.80
2018,08,07,03,42,14.80
2018,08,07,03,43,14.80
2018,08,07,03,44,14.80
2018,08,07,03,45,14.80
2018,08,07,03,46,14.80
2018,08,07,03,47,14.80
2018,08,07,03,48,14.80
2018,08,07,03,49,14.70
2018,08,07,03,50,14.70
2018,08,07,03,51,14.70
2018,08,07,03,52,14.70
2018,08,07,03,53,14.60
2018,08,07,03,54,14.60
2018,08,07,03,55,14.60
2018,08,07,03,56,14.60
2018,08,07,03,57,14.50
2018,08,07,03,58,14.50
2018,08,07,03,59,14.50
2018,08,07,04,00,14.50
2018,08,07,04,01,14.50
2018,08,07,04,02,14.40
2018,08,07,04,03,14.40
2018,08,07,04,04,14.40
2018,08,07,04,05,14.40
2018,08,07,04,06,14.40
2018,08,07,04,07,14.40
2018,08,07,04,08,14.40
2018,08,07,04,09,14.40
2018,08,07,04,10,14.30
2018,08,07,04,11,14.30
2018,08,07,04,12,14.30
2018,08,07,04,13,14.30
2018,08,07,04,14,14.30
2018,08,07,04,15,14.30
2018,08,07,04,16,14.30
2018,08,07,04,17,14.20
2018,08,07,04,18,14.20
2018,08,07,04,19,14.20
2018,08,07,04,20,14.20
2018,08,07,04,21,14.20
2018,08,07,04,22,14.20
2018,08,07,04,23,14.20
2018,08,07,04,24,14.20
2018,08,07,04,25,14.20
2018,08,07,04,26,14.20
2018,08,07,04,27,14.20
2018,08,07,04,28,14.20
2018,08,07,04,29,14.20
2018,08,07,04,30,14.20
2018,08,07,04,31,14.20
2018,08,07,04,32,14.20
2018,08,07,04,33,14.20
2018,08,07,04,34,14.20
2018,08,07,04,35,14.20
2018,08,07,04,36,14.20
2018,08,07,04,37,14.20
2018,08,07,04,38,14.20
2018,08,07,04,39,14.20
2018,08,07,04,40,14.20
2018,08,07,04,41,14.20
2018,08,07,04,42,14.20
2018,08,07,04,43,14.20
2018,08,07,04,44,14.20
2018,08,07,04,45,14.20
2018,08,07,04,46,14.20
2018,08,07,04,47,14.20
2018,08,07,04,48,14.20
2018,08,07,04,49,14.20
2018,08,07,04,50,14.20
2018,08,07,04,51,14.20
2018,08,07,04,52,14.10
2018,08,07,04,53,14.10
2018,08,07,04,54,14.10
2018,08,07,04,55,14.10
2018,08,07,04,56,14.10
2018,08,07,04,57,14.10
2018,08,07,04,58,14.10
2018,08,07,04,59,14.10
2018,08,07,05,00,14.10
2018,08,07,05,01,14.10
2018,08,07,05,02,14.10
2018,08,07,05,03,14.00
2018,08,07,05,04,14.00
2018,08,07,05,05,14.00
2018,08,07,05,06,14.00
2018,08,07,05,07,14.00
2018,08,07,05,08,14.00
2018,08,07,05,09,14.00
2018,08,07,05,10,14.00
2018,08,07,05,11,14.00
2018,08,07,05,12,14.00
2018,08,07,05,13,14.00
2018,08,07,05,14,14.00
2018,08,07,05,15,14.00
2018,08,07,05,16,14.00
2018,08,07,05,17,14.00
2018,08,07,05,18,14.00
2018,08,07,05,19,13.90
2018,08,07,05,20,13.90
2018,08,07,05,21,13.90
2018,08,07,05,22,13.90
2018,08,07,05,23,13.90
2018,08,07,05,24,13.90
2018,08,07,05,25,13.90
2018,08,07,05,26,13.90
2018,08,07,05,27,14.00
2018,08,07,05,28,14.00
2018,08,07,05,29,14.00
2018,08,07,05,30,14.00
2018,08,07,05,31,14.00
2018,08,07,05,32,14.00
2018,08,07,05,33,14.00
2018,08,07,05,34,14.00
2018,08,07,05,35,14.00
2018,08,07,05,36,13.90
2018,08,07,05,37,13.90
2018,08,07,05,38,13.90
2018,08,07,05,39,13.90
2018,08,07,05,40,13.90
2018,08,07,05,41,13.90
2018,08,07,05,42,13.90
2018,08,07,05,43,13.90
2018,08,07,05,44,13.80
2018,08,07,05,45,13.80
2018,08,07,05,46,13.80
2018,08,07,05,47,13.80
2018,08,07,05,48,13.80
2018,08,07,05,49,13.80
2018,08,07,05,50,13.80
2018,08,07,05,51,13.70
2018,08,07,05,52,13.70
2018,08,07,05,53,13.70
2018,08,07,05,54,13.70
2018,08,07,05,55,13.70
2018,08,07,05,56,13.70
2018,08,07,05,57,13.70
2018,08,07,05,58,13.70
2018,08,07,05,59,13.70
2018,08,07,06,00,13.70
2018,08,07,06,01,13.70
2018,08,07,06,02,13.70
2018,08,07,06,03,13.70
2018,08,07,06,04,13.70
2018,08,07,06,05,13.70
2018,08,07,06,06,13.70
2018,08,07,06,07,13.70
2018,08,07,06,08,13.70
2018,08,07,06,09,13.70
2018,08,07,06,10,13.60
2018,08,07,06,11,13.60
2018,08,07,06,12,13.60
2018,08,07,06,13,13.60
2018,08,07,06,14,13.60
2018,08,07,06,15,13.60
2018,08,07,06,16,13.60
2018,08,07,06,17,13.60
2018,08,07,06,18,13.60
2018,08,07,06,19,13.60
2018,08,07,06,20,13.60
2018,08,07,06,21,13.60
2018,08,07,06,22,13.60
2018,08,07,06,23,13.60
2018,08,07,06,24,13.60
2018,08,07,06,25,13.60
2018,08,07,06,26,13.60
2018,08,07,06,27,13.60
2018,08,07,06,28,13.60
2018,08,07,06,29,13.60
2018,08,07,06,30,13.60
2018,08,07,06,31,13.60
2018,08,07,06,32,13.60
2018,08,07,06,33,13.60
2018,08,07,06,34,13.70
2018,08,07,06,35,13.70
2018,08,07,06,36,13.70
2018,08,07,06,37,13.70
2018,08,07,06,38,13.70
2018,08,07,06,39,13.70
2018,08,07,06,40,13.70
2018,08,07,06,41,13.70
2018,08,07,06,42,13.70
2018,08,07,06,43,13.70
2018,08,07,06,44,13.70
2018,08,07,06,45,13.70
2018,08,07,06,46,13.70
2018,08,07,06,47,13.80
2018,08,07,06,48,13.80
2018,08,07,06,49,13.80
2018,08,07,06,50,13.80
2018,08,07,06,51,13.80
2018,08,07,06,52,13.80
2018,08,07,06,53,13.80
2018,08,07,06,54,13.90
2018,08,07,06,55,13.90
2018,08,07,06,56,13.90
2018,08,07,06,57,13.90
2018,08,07,06,58,13.90
2018,08,07,06,59,13.90
2018,08,07,07,00,13.90
2018,08,07,07,01,13.90
2018,08,07,07,02,13.90
2018,08,07,07,03,13.90
2018,08,07,07,04,13.90
2018,08,07,07,05,13.90
2018,08,07,07,06,14.00
2018,08,07,07,07,14.00
2018,08,07,07,08,14.10
2018,08,07,07,09,14.10
2018,08,07,07,10,14.20
2018,08,07,07,11,14.20
2018,08,07,07,12,14.20
2018,08,07,07,13,14.20
2018,08,07,07,14,14.20
2018,08,07,07,15,14.30
2018,08,07,07,16,14.30
2018,08,07,07,17,14.30
2018,08,07,07,18,14.30
2018,08,07,07,19,14.30
2018,08,07,07,20,14.30
2018,08,07,07,21,14.30
2018,08,07,07,22,14.30
2018,08,07,07,23,14.40
2018,08,07,07,24,14.40
2018,08,07,07,25,14.40
2018,08,07,07,26,14.40
2018,08,07,07,27,14.40
2018,08,07,07,28,14.50
2018,08,07,07,29,14.50
2018,08,07,07,30,14.50
2018,08,07,07,31,14.50
2018,08,07,07,32,14.60
2018,08,07,07,33,14.60
2018,08,07,07,34,14.60
2018,08,07,07,35,14.70
2018,08,07,07,36,14.70
2018,08,07,07,37,14.70
2018,08,07,07,38,14.80
2018,08,07,07,39,14.80
2018,08,07,07,40,14.80
2018,08,07,07,41,14.80
2018,08,07,07,42,14.70
2018,08,07,07,43,14.70
2018,08,07,07,44,14.70
2018,08,07,07,45,14.70
2018,08,07,07,46,14.70
2018,08,07,07,47,14.70
2018,08,07,07,48,14.70
2018,08,07,07,49,14.70
2018,08,07,07,50,14.70
2018,08,07,07,51,14.70
2018,08,07,07,52,14.80
2018,08,07,07,53,14.80
2018,08,07,07,54,14.80
2018,08,07,07,55,14.70
2018,08,07,07,56,14.70
2018,08,07,07,57,14.70
2018,08,07,07,58,14.70
2018,08,07,07,59,14.70
2018,08,07,08,00,14.80
2018,08,07,08,01,14.80
2018,08,07,08,02,14.80
2018,08,07,08,03,14.80
2018,08,07,08,04,14.80
2018,08,07,08,05,14.80
2018,08,07,08,06,14.80
2018,08,07,08,07,14.80
2018,08,07,08,08,14.90
2018,08,07,08,09,14.90
2018,08,07,08,10,15.00
2018,08,07,08,11,15.10
2018,08,07,08,12,15.20
2018,08,07,08,13,15.30
2018,08,07,08,14,15.40
2018,08,07,08,15,15.50
2018,08,07,08,16,15.60
2018,08,07,08,17,15.70
2018,08,07,08,18,15.80
2018,08,07,08,19,15.80
2018,08,07,08,20,15.80
2018,08,07,08,21,15.80
2018,08,07,08,22,15.80
2018,08,07,08,23,15.80
2018,08,07,08,24,15.90
2018,08,07,08,25,15.90
2018,08,07,08,26,15.90
2018,08,07,08,27,15.80
2018,08,07,08,28,15.80
2018,08,07,08,29,15.80
2018,08,07,08,30,15.80
2018,08,07,08,31,15.70
2018,08,07,08,32,15.70
2018,08,07,08,33,15.70
2018,08,07,08,34,15.80
2018,08,07,08,35,15.80
2018,08,07,08,36,15.90
2018,08,07,08,37,16.00
2018,08,07,08,38,16.10
2018,08,07,08,39,16.20
2018,08,07,08,40,16.30
2018,08,07,08,41,16.30
2018,08,07,08,42,16.40
2018,08,07,08,43,16.40
2018,08,07,08,44,16.40
2018,08,07,08,45,16.50
2018,08,07,08,46,16.60
2018,08,07,08,47,16.60
2018,08,07,08,48,16.60
2018,08,07,08,49,16.70
2018,08,07,08,50,16.70
2018,08,07,08,51,16.70
2018,08,07,08,52,16.70
2018,08,07,08,53,16.70
2018,08,07,08,54,16.70
2018,08,07,08,55,16.60
2018,08,07,08,56,16.60
2018,08,07,08,57,16.50
2018,08,07,08,58,16.40
2018,08,07,08,59,16.40
2018,08,07,09,00,16.50
2018,08,07,09,01,16.70
2018,08,07,09,02,16.80
2018,08,07,09,03,16.80
2018,08,07,09,04,16.80
2018,08,07,09,05,16.80
2018,08,07,09,06,16.80
2018,08,07,09,07,16.80
2018,08,07,09,08,16.70
2018,08,07,09,09,16.70
2018,08,07,09,10,16.70
2018,08,07,09,11,16.70
2018,08,07,09,12,16.70
2018,08,07,09,13,16.60
2018,08,07,09,14,16.60
2018,08,07,09,15,16.60
2018,08,07,09,16,16.70
2018,08,07,09,17,16.70
2018,08,07,09,18,16.70
2018,08,07,09,19,16.60
2018,08,07,09,20,16.60
2018,08,07,09,21,16.60
2018,08,07,09,22,16.70
2018,08,07,09,23,16.70
2018,08,07,09,24,16.80
2018,08,07,09,25,16.80
2018,08,07,09,26,16.80
2018,08,07,09,27,16.80
2018,08,07,09,28,16.70
2018,08,07,09,29,16.70
2018,08,07,09,30,16.70
2018,08,07,09,31,16.60
2018,08,07,09,32,16.60
2018,08,07,09,33,16.60
2018,08,07,09,34,16.60
2018,08,07,09,35,16.60
2018,08,07,09,36,16.60
2018,08,07,09,37,16.70
2018,08,07,09,38,16.70
2018,08,07,09,39,16.80
2018,08,07,09,40,16.90
2018,08,07,09,41,17.00
2018,08,07,09,42,17.10
2018,08,07,09,43,17.10
2018,08,07,09,44,17.30
2018,08,07,09,45,17.30
2018,08,07,09,46,17.40
2018,08,07,09,47,17.40
2018,08,07,09,48,17.50
2018,08,07,09,49,17.50
2018,08,07,09,50,17.50
2018,08,07,09,51,17.40
2018,08,07,09,52,17.30
2018,08,07,09,53,17.30
2018,08,07,09,54,17.30
2018,08,07,09,55,17.30
2018,08,07,09,56,17.30
2018,08,07,09,57,17.20
2018,08,07,09,58,17.00
2018,08,07,09,59,16.90
2018,08,07,10,00,16.80
2018,08,07,10,01,16.70
2018,08,07,10,02,16.70
2018,08,07,10,03,16.80
2018,08,07,10,04,16.80
2018,08,07,10,05,16.90
2018,08,07,10,06,17.00
2018,08,07,10,07,17.00
2018,08,07,10,08,17.20
2018,08,07,10,09,17.30
2018,08,07,10,10,17.40
2018,08,07,10,11,17.50
2018,08,07,10,12,17.50
2018,08,07,10,13,17.60
2018,08,07,10,14,17.60
2018,08,07,10,15,17.70
2018,08,07,10,16,17.50
2018,08,07,10,17,17.50
2018,08,07,10,18,17.60
2018,08,07,10,19,17.60
2018,08,07,10,20,17.60
2018,08,07,10,21,17.50
2018,08,07,10,22,17.50
2018,08,07,10,23,17.50
2018,08,07,10,24,17.60
2018,08,07,10,25,17.70
2018,08,07,10,26,17.80
2018,08,07,10,27,17.90
2018,08,07,10,28,17.90
2018,08,07,10,29,18.00
2018,08,07,10,30,18.10
2018,08,07,10,31,18.10
2018,08,07,10,32,18.10
2018,08,07,10,33,18.10
2018,08,07,10,34,18.10
2018,08,07,10,35,18.10
2018,08,07,10,36,18.10
2018,08,07,10,37,18.20
2018,08,07,10,38,18.20
2018,08,07,10,39,18.20
2018,08,07,10,40,18.20
2018,08,07,10,41,18.30
2018,08,07,10,42,18.40
2018,08,07,10,43,18.50
2018,08,07,10,44,18.50
2018,08,07,10,45,18.60
2018,08,07,10,46,18.60
2018,08,07,10,47,18.60
2018,08,07,10,48,18.60
2018,08,07,10,49,18.60
2018,08,07,10,50,18.60
2018,08,07,10,51,18.60
2018,08,07,10,52,18.60
2018,08,07,10,53,18.60
2018,08,07,10,54,18.60
2018,08,07,10,55,18.70
2018,08,07,10,56,18.70
2018,08,07,10,57,18.60
2018,08,07,10,58,18.60
2018,08,07,10,59,18.40
2018,08,07,11,00,18.30
2018,08,07,11,01,18.20
2018,08,07,11,02,18.10
2018,08,07,11,03,18.00
2018,08,07,11,04,17.90
2018,08,07,11,05,17.90
2018,08,07,11,06,18.00
2018,08,07,11,07,18.00
2018,08,07,11,08,18.00
2018,08,07,11,09,17.90
2018,08,07,11,10,18.00
2018,08,07,11,11,18.10
2018,08,07,11,12,18.10
2018,08,07,11,13,18.10
2018,08,07,11,14,18.10
2018,08,07,11,15,18.10
2018,08,07,11,16,18.10
2018,08,07,11,17,18.10
2018,08,07,11,18,18.10
2018,08,07,11,19,18.20
2018,08,07,11,20,18.20
2018,08,07,11,21,18.20
2018,08,07,11,22,18.30
2018,08,07,11,23,18.40
2018,08,07,11,24,18.40
2018,08,07,11,25,18.50
2018,08,07,11,26,18.50
2018,08,07,11,27,18.50
2018,08,07,11,28,18.60
2018,08,07,11,29,18.70
2018,08,07,11,30,18.80
2018,08,07,11,31,18.80
2018,08,07,11,32,18.90
2018,08,07,11,33,18.90
2018,08,07,11,34,19.00
2018,08,07,11,35,19.10
2018,08,07,11,36,19.00
2018,08,07,11,37,18.90
2018,08,07,11,38,18.90
2018,08,07,11,39,18.90
2018,08,07,11,40,19.10
2018,08,07,11,41,19.10
2018,08,07,11,42,19.30
2018,08,07,11,43,19.40
2018,08,07,11,44,19.50
2018,08,07,11,45,19.60
2018,08,07,11,46,19.60
2018,08,07,11,47,19.70
2018,08,07,11,48,19.70
2018,08,07,11,49,19.90
2018,08,07,11,50,19.90
2018,08,07,11,51,20.10
2018,08,07,11,52,20.10
2018,08,07,11,53,20.20
2018,08,07,11,54,20.10
2018,08,07,11,55,20.10
2018,08,07,11,56,20.10
2018,08,07,11,57,20.00
2018,08,07,11,58,19.90
2018,08,07,11,59,19.90
2018,08,07,12,00,19.90
2018,08,07,12,01,19.80
2018,08,07,12,02,19.70
2018,08,07,12,03,19.60
2018,08,07,12,04,19.60
2018,08,07,12,05,19.60
2018,08,07,12,06,19.60
2018,08,07,12,07,19.60
2018,08,07,12,08,19.70
2018,08,07,12,09,19.70
2018,08,07,12,10,19.70
2018,08,07,12,11,19.80
2018,08,07,12,12,19.80
2018,08,07,12,13,19.80
2018,08,07,12,14,19.70
2018,08,07,12,15,19.70
2018,08,07,12,16,19.70
2018,08,07,12,17,19.60
2018,08,07,12,18,19.60
2018,08,07,12,19,19.60
2018,08,07,12,20,19.50
2018,08,07,12,21,19.50
2018,08,07,12,22,19.50
2018,08,07,12,23,19.50
2018,08,07,12,24,19.50
2018,08,07,12,25,19.50
2018,08,07,12,26,19.40
2018,08,07,12,27,19.40
2018,08,07,12,28,19.40
2018,08,07,12,29,19.40
2018,08,07,12,30,19.40
2018,08,07,12,31,19.50
2018,08,07,12,32,19.60
2018,08,07,12,33,19.60
2018,08,07,12,34,19.50
2018,08,07,12,35,19.60
2018,08,07,12,36,19.50
2018,08,07,12,37,19.50
2018,08,07,12,38,19.40
2018,08,07,12,39,19.40
2018,08,07,12,40,19.30
2018,08,07,12,41,19.30
2018,08,07,12,42,19.30
2018,08,07,12,43,19.30
2018,08,07,12,44,19.30
2018,08,07,12,45,19.40
2018,08,07,12,46,19.50
2018,08,07,12,47,19.50
2018,08,07,12,48,19.60
2018,08,07,12,49,19.70
2018,08,07,12,50,19.70
2018,08,07,12,51,19.90
2018,08,07,12,52,20.00
2018,08,07,12,53,20.20
2018,08,07,12,54,20.30
2018,08,07,12,55,20.50
2018,08,07,12,56,20.60
2018,08,07,12,57,20.80
2018,08,07,12,58,20.90
2018,08,07,12,59,21.00
2018,08,07,13,00,21.00
2018,08,07,13,01,21.10
2018,08,07,13,02,21.10
2018,08,07,13,03,21.10
2018,08,07,13,04,21.20
2018,08,07,13,05,21.20
2018,08,07,13,06,21.30
2018,08,07,13,07,21.30
2018,08,07,13,08,21.40
2018,08,07,13,09,21.50
2018,08,07,13,10,21.60
2018,08,07,13,11,21.60
2018,08,07,13,12,21.80
2018,08,07,13,13,21.90
2018,08,07,13,14,22.00
2018,08,07,13,15,22.10
2018,08,07,13,16,22.00
2018,08,07,13,17,22.00
2018,08,07,13,18,22.00
2018,08,07,13,19,22.00
2018,08,07,13,20,22.00
2018,08,07,13,21,22.00
2018,08,07,13,22,22.00
2018,08,07,13,23,22.10
2018,08,07,13,24,22.20
2018,08,07,13,25,22.20
2018,08,07,13,26,22.30
2018,08,07,13,27,22.30
2018,08,07,13,28,22.30
2018,08,07,13,29,22.30
2018,08,07,13,30,22.20
2018,08,07,13,31,22.20
2018,08,07,13,32,22.20
2018,08,07,13,33,22.20
2018,08,07,13,34,22.20
2018,08,07,13,35,22.20
2018,08,07,13,36,22.10
2018,08,07,13,37,22.10
2018,08,07,13,38,22.00
2018,08,07,13,39,22.00
2018,08,07,13,40,21.90
2018,08,07,13,41,21.90
2018,08,07,13,42,21.90
2018,08,07,13,43,21.70
2018,08,07,13,44,21.70
2018,08,07,13,45,21.60
2018,08,07,13,46,21.60
2018,08,07,13,47,21.60
2018,08,07,13,48,21.60
2018,08,07,13,49,21.60
2018,08,07,13,50,21.60
2018,08,07,13,51,21.60
2018,08,07,13,52,21.70
2018,08,07,13,53,21.80
2018,08,07,13,54,22.00
2018,08,07,13,55,22.20
2018,08,07,13,56,22.40
2018,08,07,13,57,22.60
2018,08,07,13,58,22.70
2018,08,07,13,59,22.80
2018,08,07,14,00,22.90
2018,08,07,14,01,22.90
2018,08,07,14,02,23.00
2018,08,07,14,03,23.10
2018,08,07,14,04,23.20
2018,08,07,14,05,23.10
2018,08,07,14,06,23.10
2018,08,07,14,07,22.90
2018,08,07,14,08,22.90
2018,08,07,14,09,22.90
2018,08,07,14,10,23.00
2018,08,07,14,11,23.10
2018,08,07,14,12,23.20
2018,08,07,14,13,23.30
2018,08,07,14,14,23.30
2018,08,07,14,15,23.30
2018,08,07,14,16,23.30
2018,08,07,14,17,23.30
2018,08,07,14,18,23.40
2018,08,07,14,19,23.40
2018,08,07,14,20,23.40
2018,08,07,14,21,23.40
2018,08,07,14,22,23.40
2018,08,07,14,23,23.40
2018,08,07,14,24,23.40
2018,08,07,14,25,23.40
2018,08,07,14,26,23.40
2018,08,07,14,27,23.40
2018,08,07,14,28,23.40
2018,08,07,14,29,23.50
2018,08,07,14,30,23.50
2018,08,07,14,31,23.60
2018,08,07,14,32,23.70
2018,08,07,14,33,23.70
2018,08,07,14,34,23.70
2018,08,07,14,35,23.60
2018,08,07,14,36,23.60
2018,08,07,14,37,23.60
2018,08,07,14,38,23.50
2018,08,07,14,39,23.40
2018,08,07,14,40,23.50
2018,08,07,14,41,23.60
2018,08,07,14,42,23.70
2018,08,07,14,43,23.80
2018,08,07,14,44,23.90
2018,08,07,14,45,24.00
2018,08,07,14,46,24.10
2018,08,07,14,47,24.10
2018,08,07,14,48,24.10
2018,08,07,14,49,24.10
2018,08,07,14,50,24.20
2018,08,07,14,51,24.20
2018,08,07,14,52,24.20
2018,08,07,14,53,24.40
2018,08,07,14,54,24.50
2018,08,07,14,55,24.60
2018,08,07,14,56,24.60
2018,08,07,14,57,24.60
2018,08,07,14,58,24.70
2018,08,07,14,59,24.70
2018,08,07,15,00,24.70
2018,08,07,15,01,24.70
2018,08,07,15,02,24.70
2018,08,07,15,03,24.70
2018,08,07,15,04,24.70
2018,08,07,15,05,24.70
2018,08,07,15,06,24.70
2018,08,07,15,07,24.70
2018,08,07,15,08,24.70
2018,08,07,15,09,24.60
2018,08,07,15,10,24.70
2018,08,07,15,11,24.70
2018,08,07,15,12,24.80
2018,08,07,15,13,24.90
2018,08,07,15,14,24.90
2018,08,07,15,15,25.00
2018,08,07,15,16,25.10
2018,08,07,15,17,25.30
2018,08,07,15,18,25.30
2018,08,07,15,19,25.40
2018,08,07,15,20,25.40
2018,08,07,15,21,25.40
2018,08,07,15,22,25.40
2018,08,07,15,23,25.30
2018,08,07,15,24,25.30
2018,08,07,15,25,25.40
2018,08,07,15,26,25.40
2018,08,07,15,27,25.40
2018,08,07,15,28,25.40
2018,08,07,15,29,25.30
2018,08,07,15,30,25.20
2018,08,07,15,31,25.20
2018,08,07,15,32,25.20
2018,08,07,15,33,25.20
2018,08,07,15,34,25.10
2018,08,07,15,35,25.00
2018,08,07,15,36,25.00
2018,08,07,15,37,25.00
2018,08,07,15,38,25.10
2018,08,07,15,39,25.20
2018,08,07,15,40,25.20
2018,08,07,15,41,25.30
2018,08,07,15,42,25.30
2018,08,07,15,43,25.30
2018,08,07,15,44,25.30
2018,08,07,15,45,25.30
2018,08,07,15,46,25.40
2018,08,07,15,47,25.40
2018,08,07,15,48,25.50
2018,08,07,15,49,25.60
2018,08,07,15,50,25.60
2018,08,07,15,51,25.60
2018,08,07,15,52,25.50
2018,08,07,15,53,25.50
2018,08,07,15,54,25.40
2018,08,07,15,55,25.50
2018,08,07,15,56,25.50
2018,08,07,15,57,25.60
2018,08,07,15,58,25.60
2018,08,07,15,59,25.70
2018,08,07,16,00,25.70
2018,08,07,16,01,25.70
2018,08,07,16,02,25.80
2018,08,07,16,03,25.90
2018,08,07,16,04,26.00
2018,08,07,16,05,26.10
2018,08,07,16,06,26.20
2018,08,07,16,07,26.30
2018,08,07,16,08,26.40
2018,08,07,16,09,26.50
2018,08,07,16,10,26.60
2018,08,07,16,11,26.60
2018,08,07,16,12,26.60
2018,08,07,16,13,26.60
2018,08,07,16,14,26.60
2018,08,07,16,15,26.60
2018,08,07,16,16,26.60
2018,08,07,16,17,26.60
2018,08,07,16,18,26.50
2018,08,07,16,19,26.40
2018,08,07,16,20,26.20
2018,08,07,16,21,26.20
2018,08,07,16,22,26.10
2018,08,07,16,23,26.00
2018,08,07,16,24,25.90
2018,08,07,16,25,25.80
2018,08,07,16,26,25.70
2018,08,07,16,27,25.70
2018,08,07,16,28,25.60
2018,08,07,16,29,25.60
2018,08,07,16,30,25.70
2018,08,07,16,31,25.70
2018,08,07,16,32,25.80
2018,08,07,16,33,25.80
2018,08,07,16,34,25.80
2018,08,07,16,35,25.90
2018,08,07,16,36,25.90
2018,08,07,16,37,26.00
2018,08,07,16,38,26.00
2018,08,07,16,39,26.00
2018,08,07,16,40,26.00
2018,08,07,16,41,26.00
2018,08,07,16,42,25.90
2018,08,07,16,43,25.90
2018,08,07,16,44,25.80
2018,08,07,16,45,25.70
2018,08,07,16,46,25.70
2018,08,07,16,47,25.70
2018,08,07,16,48,25.60
2018,08,07,16,49,25.60
2018,08,07,16,50,25.60
2018,08,07,16,51,25.60
2018,08,07,16,52,25.60
2018,08,07,16,53,25.70
2018,08,07,16,54,25.70
2018,08,07,16,55,25.70
2018,08,07,16,56,25.70
2018,08,07,16,57,25.80
2018,08,07,16,58,25.80
2018,08,07,16,59,25.80
2018,08,07,17,00,25.80
2018,08,07,17,01,25.80
2018,08,07,17,02,25.80
2018,08,07,17,03,25.70
2018,08,07,17,04,25.70
2018,08,07,17,05,25.60
2018,08,07,17,06,25.50
2018,08,07,17,07,25.40
2018,08,07,17,08,25.40
2018,08,07,17,09,25.30
2018,08,07,17,10,25.20
2018,08,07,17,11,25.00
2018,08,07,17,12,24.90
2018,08,07,17,13,24.80
2018,08,07,17,14,24.70
2018,08,07,17,15,24.60
2018,08,07,17,16,24.60
2018,08,07,17,17,24.50
2018,08,07,17,18,24.50
2018,08,07,17,19,24.40